| time (UTC) | temp F | wind direction | speed knots | gust knots | rain 1hr in | rain 24hr in | rain mn in | humidity % | barometer mb |
| 20260505130227 | 51 | 37 | 0.0 | 0.0 | 0.00 | 0.00 | 0.00 | 71 | 1013.2 |
| 20260505124218 | 52 | 37 | 0.0 | 0.0 | 0.00 | 0.00 | 0.00 | 68 | 1012.8 |
| 20260505123229 | 52 | 37 | 0.0 | 0.0 | 0.00 | 0.00 | 0.00 | 67 | 1012.8 |
| 20260505122241 | 52 | 37 | 0.0 | 0.0 | 0.00 | 0.00 | 0.00 | 67 | 1012.5 |
| 20260505121220 | 52 | 37 | 0.0 | 0.0 | 0.00 | 0.00 | 0.00 | 67 | 1012.3 |
| 20260505120251 | 51 | 37 | 0.0 | 0.0 | 0.00 | 0.00 | 0.00 | 71 | 1012.0 |
| 20260505115242 | 51 | 37 | 0.0 | 0.9 | 0.00 | 0.00 | 0.00 | 69 | 1012.2 |
| 20260505114222 | 52 | 37 | 0.0 | 0.0 | 0.00 | 0.00 | 0.00 | 69 | 1012.0 |
| 20260505113233 | 52 | 37 | 0.0 | 0.0 | 0.00 | 0.00 | 0.00 | 68 | 1011.7 |
| 20260505112244 | 52 | 37 | 0.0 | 0.0 | 0.00 | 0.00 | 0.00 | 66 | 1011.5 |
| 20260505111223 | 53 | 37 | 0.0 | 0.0 | 0.00 | 0.00 | 0.00 | 67 | 1011.4 |
| 20260505110235 | 53 | 37 | 0.0 | 0.0 | 0.00 | 0.00 | 0.00 | 65 | 1011.4 |
| 20260505102217 | 54 | 37 | 0.0 | 0.0 | 0.00 | 0.00 | 0.00 | 63 | 1010.8 |
| 20260505101228 | 54 | 37 | 0.0 | 0.0 | 0.00 | 0.00 | 0.00 | 63 | 1010.5 |
| 20260505100238 | 54 | 37 | 0.0 | 0.0 | 0.00 | 0.00 | 0.00 | 63 | 1010.2 |
| 20260505095218 | 55 | 37 | 0.0 | 0.0 | 0.00 | 0.00 | 0.00 | 62 | 1010.1 |
| 20260505094229 | 55 | 37 | 0.0 | 0.0 | 0.00 | 0.00 | 0.00 | 61 | 1010.0 |
| 20260505093240 | 56 | 37 | 0.0 | 0.9 | 0.00 | 0.00 | 0.00 | 59 | 1009.8 |
| 20260505092220 | 56 | 37 | 0.0 | 0.0 | 0.00 | 0.00 | 0.00 | 58 | 1009.8 |
| 20260505091231 | 57 | 37 | 0.0 | 0.0 | 0.00 | 0.00 | 0.00 | 58 | 1009.9 |
| 20260505090242 | 56 | 57 | 0.0 | 0.0 | 0.00 | 0.00 | 0.00 | 59 | 1009.8 |
| 20260505085222 | 56 | 62 | 0.0 | 0.0 | 0.00 | 0.00 | 0.00 | 58 | 1009.4 |
| 20260505084233 | 56 | 62 | 0.0 | 0.0 | 0.00 | 0.00 | 0.00 | 59 | 1009.3 |
| 20260505083244 | 57 | 62 | 0.0 | 0.0 | 0.00 | 0.00 | 0.00 | 58 | 1009.2 |
| 20260505082224 | 57 | 62 | 0.0 | 0.0 | 0.00 | 0.00 | 0.00 | 57 | 1008.8 |
| 20260505081235 | 57 | 62 | 0.0 | 0.9 | 0.00 | 0.00 | 0.00 | 57 | 1008.9 |
| 20260505080246 | 58 | 62 | 0.0 | 0.9 | 0.00 | 0.00 | 0.00 | 56 | 1008.8 |
| 20260505075226 | 58 | 62 | 0.0 | 0.9 | 0.00 | 0.00 | 0.00 | 55 | 1008.9 |
| 20260505074238 | 59 | 62 | 0.0 | 0.0 | 0.00 | 0.00 | 0.00 | 52 | 1008.9 |
| 20260505073216 | 59 | 62 | 0.0 | 0.9 | 0.00 | 0.00 | 0.00 | 52 | 1008.8 |
| 20260505072247 | 60 | 62 | 0.0 | 0.9 | 0.00 | 0.00 | 0.00 | 53 | 1008.4 |
| 20260505071238 | 61 | 23 | 0.0 | 0.9 | 0.00 | 0.00 | 0.00 | 52 | 1008.5 |
| 20260505070218 | 61 | 41 | 0.0 | 0.0 | 0.00 | 0.00 | 0.00 | 47 | 1008.4 |
| 20260505065229 | 60 | 31 | 0.0 | 0.9 | 0.00 | 0.00 | 0.00 | 49 | 1008.5 |
| 20260505064241 | 61 | 269 | 0.0 | 0.9 | 0.00 | 0.00 | 0.00 | 49 | 1008.1 |
| 20260505063220 | 62 | 269 | 0.0 | 0.9 | 0.00 | 0.00 | 0.00 | 49 | 1008.2 |
| 20260505062231 | 63 | 269 | 0.0 | 0.0 | 0.00 | 0.00 | 0.00 | 48 | 1008.3 |
| 20260505061243 | 64 | 269 | 0.0 | 0.0 | 0.00 | 0.00 | 0.00 | 45 | 1008.3 |
| 20260505060222 | 65 | 269 | 0.0 | 0.0 | 0.00 | 0.00 | 0.00 | 43 | 1008.1 |
| 20260505055233 | 67 | 269 | 0.0 | 0.0 | 0.00 | 0.00 | 0.00 | 39 | 1008.1 |
| 20260505054244 | 68 | 269 | 0.0 | 0.0 | 0.00 | 0.00 | 0.00 | 37 | 1008.0 |
| 20260505053224 | 68 | 287 | 0.0 | 1.7 | 0.00 | 0.00 | 0.00 | 36 | 1007.8 |
| 20260505052235 | 68 | 287 | 1.7 | 1.7 | 0.00 | 0.00 | 0.00 | 35 | 1007.8 |
| 20260505051246 | 68 | 288 | 0.9 | 1.7 | 0.00 | 0.00 | 0.00 | 35 | 1008.1 |
| 20260505050306 | 68 | 288 | 0.9 | 0.9 | 0.00 | 0.00 | 0.00 | 35 | 1007.5 |
| 20260505041219 | 70 | 299 | 0.9 | 0.9 | 0.00 | 0.00 | 0.00 | 34 | 1008.0 |
| 20260505040230 | 70 | 299 | 0.9 | 1.7 | 0.00 | 0.00 | 0.00 | 34 | 1007.8 |
| 20260505035301 | 71 | 299 | 0.9 | 0.9 | 0.00 | 0.00 | 0.00 | 33 | 1008.0 |
| 20260505034221 | 72 | 299 | 0.0 | 0.0 | 0.00 | 0.00 | 0.00 | 33 | 1007.8 |
| 20260505033252 | 73 | 299 | 0.0 | 0.0 | 0.00 | 0.00 | 0.00 | 31 | 1007.5 |
| 20260505032242 | 73 | 299 | 0.0 | 0.0 | 0.00 | 0.00 | 0.00 | 30 | 1007.7 |
| 20260505031222 | 74 | 299 | 0.0 | 0.9 | 0.00 | 0.00 | 0.00 | 30 | 1007.7 |
| 20260505030234 | 74 | 52 | 0.0 | 0.9 | 0.00 | 0.00 | 0.00 | 29 | 1007.3 |
| 20260505025244 | 75 | 328 | 0.9 | 1.7 | 0.00 | 0.00 | 0.00 | 29 | 1007.4 |
| 20260505024225 | 76 | 276 | 1.7 | 2.6 | 0.00 | 0.00 | 0.00 | 30 | 1007.4 |
| 20260505023236 | 76 | 267 | 0.9 | 1.7 | 0.00 | 0.00 | 0.00 | 28 | 1007.1 |
| 20260505022215 | 77 | 290 | 0.0 | 1.7 | 0.00 | 0.00 | 0.00 | 28 | 1007.0 |
| 20260505021227 | 77 | 16 | 0.9 | 1.7 | 0.00 | 0.00 | 0.00 | 29 | 1007.2 |
| 20260505020238 | 78 | 288 | 0.9 | 1.7 | 0.00 | 0.00 | 0.00 | 30 | 1007.0 |
| 20260505015217 | 79 | 272 | 0.0 | 2.6 | 0.00 | 0.00 | 0.00 | 28 | 1007.3 |
| 20260505014228 | 79 | 265 | 0.0 | 2.6 | 0.00 | 0.00 | 0.00 | 27 | 1007.3 |
| 20260505013239 | 80 | 105 | 1.7 | 2.6 | 0.00 | 0.00 | 0.00 | 27 | 1007.2 |
| 20260505012219 | 80 | 280 | 0.9 | 1.7 | 0.00 | 0.00 | 0.00 | 26 | 1007.2 |
| 20260505011230 | 80 | 303 | 0.9 | 1.7 | 0.00 | 0.00 | 0.00 | 25 | 1007.3 |
| 20260505010241 | 80 | 205 | 0.9 | 5.2 | 0.00 | 0.00 | 0.00 | 22 | 1007.4 |
| 20260505005221 | 81 | 303 | 0.9 | 1.7 | 0.00 | 0.00 | 0.00 | 23 | 1007.5 |
| 20260505004252 | 81 | 7 | 0.9 | 3.5 | 0.00 | 0.00 | 0.00 | 21 | 1007.4 |
| 20260505003243 | 81 | 62 | 0.0 | 1.7 | 0.00 | 0.00 | 0.00 | 22 | 1007.8 |
| 20260505002223 | 81 | 18 | 0.9 | 2.6 | 0.00 | 0.00 | 0.00 | 22 | 1007.9 |
| 20260505001234 | 81 | 322 | 1.7 | 2.6 | 0.00 | 0.00 | 0.00 | 24 | 1007.8 |
| 20260505000245 | 81 | 290 | 0.9 | 6.1 | 0.00 | 0.00 | 0.00 | 23 | 1007.9 |
| 20260504235225 | 81 | 302 | 0.9 | 2.6 | 0.00 | 0.00 | 0.00 | 23 | 1008.0 |
| 20260504234236 | 81 | 271 | 1.7 | 3.5 | 0.00 | 0.00 | 0.00 | 24 | 1007.9 |
| 20260504233247 | 81 | 92 | 0.0 | 1.7 | 0.00 | 0.00 | 0.00 | 25 | 1008.0 |
| 20260504232227 | 81 | 345 | 1.7 | 7.0 | 0.00 | 0.00 | 0.00 | 26 | 1008.2 |
| 20260504231238 | 81 | 282 | 0.9 | 3.5 | 0.00 | 0.00 | 0.00 | 28 | 1008.0 |
| 20260504230218 | 80 | 284 | 1.7 | 3.5 | 0.00 | 0.00 | 0.00 | 28 | 1008.2 |
| 20260504225229 | 80 | 283 | 0.9 | 5.2 | 0.00 | 0.00 | 0.00 | 28 | 1008.6 |
| 20260504224239 | 80 | 283 | 2.6 | 7.0 | 0.00 | 0.00 | 0.00 | 29 | 1008.5 |
| 20260504223220 | 79 | 329 | 2.6 | 5.2 | 0.00 | 0.00 | 0.00 | 29 | 1008.6 |
| 20260504222250 | 79 | 291 | 1.7 | 3.5 | 0.00 | 0.00 | 0.00 | 30 | 1008.9 |
| 20260504221242 | 78 | 268 | 2.6 | 6.1 | 0.00 | 0.00 | 0.00 | 31 | 1009.2 |
| 20260504220221 | 78 | 285 | 2.6 | 3.5 | 0.00 | 0.00 | 0.00 | 33 | 1009.4 |
| 20260504215232 | 78 | 277 | 0.9 | 5.2 | 0.00 | 0.00 | 0.00 | 29 | 1009.4 |
| 20260504214243 | 79 | 289 | 0.0 | 1.7 | 0.00 | 0.00 | 0.00 | 31 | 1009.7 |
| 20260504213223 | 79 | 299 | 2.6 | 6.1 | 0.00 | 0.00 | 0.00 | 32 | 1009.7 |
| 20260504212234 | 78 | 275 | 3.5 | 5.2 | 0.00 | 0.00 | 0.00 | 32 | 1009.8 |
| 20260504211245 | 78 | 335 | 1.7 | 5.2 | 0.00 | 0.00 | 0.00 | 32 | 1010.3 |
| 20260504210225 | 77 | 266 | 0.9 | 5.2 | 0.00 | 0.00 | 0.00 | 33 | 1010.7 |
| 20260504205236 | 76 | 300 | 3.5 | 5.2 | 0.00 | 0.00 | 0.00 | 34 | 1010.5 |
| 20260504204216 | 76 | 274 | 1.7 | 2.6 | 0.00 | 0.00 | 0.00 | 34 | 1010.5 |
| 20260504203227 | 76 | 265 | 0.9 | 1.7 | 0.00 | 0.00 | 0.00 | 34 | 1010.6 |
| 20260504202238 | 76 | 302 | 1.7 | 3.5 | 0.00 | 0.00 | 0.00 | 34 | 1011.0 |
| 20260504201238 | 75 | 17 | 0.9 | 1.7 | 0.00 | 0.00 | 0.00 | 34 | 1011.0 |
| 20260504200229 | 75 | 293 | 2.6 | 6.1 | 0.00 | 0.00 | 0.00 | 33 | 1011.3 |
| 20260504195240 | 74 | 215 | 0.9 | 3.5 | 0.00 | 0.00 | 0.00 | 34 | 1011.4 |
| 20260504194300 | 74 | 286 | 0.9 | 2.6 | 0.00 | 0.00 | 0.00 | 33 | 1011.5 |
| 20260504193231 | 74 | 272 | 0.9 | 2.6 | 0.00 | 0.00 | 0.00 | 35 | 1011.4 |
| 20260504192242 | 74 | 205 | 0.9 | 3.5 | 0.00 | 0.00 | 0.00 | 35 | 1011.7 |
| 20260504190233 | 74 | 289 | 1.7 | 2.6 | 0.00 | 0.00 | 0.00 | 36 | 1011.7 |
| 20260504185244 | 73 | 154 | 0.0 | 3.5 | 0.00 | 0.00 | 0.00 | 36 | 1012.1 |
| 20260504184223 | 73 | 290 | 1.7 | 3.5 | 0.00 | 0.00 | 0.00 | 39 | 1012.2 |
| 20260504183235 | 72 | 296 | 0.0 | 0.9 | 0.00 | 0.00 | 0.00 | 40 | 1012.1 |
| 20260504182306 | 71 | 44 | 0.9 | 2.6 | 0.00 | 0.00 | 0.00 | 39 | 1012.4 |
| 20260504181225 | 72 | 82 | 0.9 | 1.7 | 0.00 | 0.00 | 0.00 | 40 | 1012.5 |
| 20260504180236 | 71 | 298 | 1.7 | 3.5 | 0.00 | 0.00 | 0.00 | 41 | 1012.9 |
| 20260504175216 | 71 | 281 | 1.7 | 3.5 | 0.00 | 0.00 | 0.00 | 42 | 1012.8 |
| 20260504174228 | 72 | 275 | 1.7 | 1.7 | 0.00 | 0.00 | 0.00 | 38 | 1012.8 |
| 20260504173239 | 72 | 275 | 0.9 | 2.6 | 0.00 | 0.00 | 0.00 | 41 | 1012.6 |
| 20260504172218 | 72 | 292 | 0.9 | 1.7 | 0.00 | 0.00 | 0.00 | 39 | 1012.6 |
| 20260504171229 | 72 | 13 | 0.0 | 0.9 | 0.00 | 0.00 | 0.00 | 41 | 1012.9 |
| 20260504170240 | 73 | 296 | 0.0 | 0.9 | 0.00 | 0.00 | 0.00 | 39 | 1013.0 |
| 20260504160244 | 68 | 92 | 0.0 | 0.9 | 0.00 | 0.00 | 0.00 | 44 | 1013.2 |
| 20260504150319 | 62 | 273 | 0.0 | 0.0 | 0.00 | 0.00 | 0.00 | 53 | 1013.3 |
| 20260504140322 | 49 | 284 | 0.0 | 0.0 | 0.00 | 0.00 | 0.00 | 79 | 1013.0 |